Eau Claire, WI

8:53 PM CDT on March 26, 2017 (GMT -0500)
Chippewa Valley Regional

Weather History for KEAU - May, 2015

Change the Weather History Date:

Saturday, May 23, 2015

  Actual Average Record
Temperature  
Mean Temperature 57 °F 60 °F  
Max Temperature 75 °F 72 °F 94 °F (1925)
Min Temperature 39 °F 48 °F 29 °F (1931)
Degree Days  
Heating Degree Days 8 7  
Month to date heating degree days 204 213  
Since 1 July heating degree days 8068 7853  
Cooling Degree Days 0 1  
Month to date cooling degree days 10 17  
Year to date cooling degree days 10 21  
Growing Degree Days 7 (Base 50)    
Moisture  
Dew Point 42 °F    
Average Humidity 61    
Maximum Humidity 93    
Minimum Humidity 29    
Precipitation  
Precipitation T in 0.12 in 2.30 in (1975)
Month to date precipitation 2.55 2.52  
Year to date precipitation 6.61 8.70  
Snow  
Snow 0.00 in 0.00 in 0.00 in ()
Month to date snowfall 0.0 0.2  
Since 1 July snowfall 38.1 47.0  
Snow Depth 0.00 in    
Sea Level Pressure  
Sea Level Pressure 30.22 in    
Wind  
Wind Speed 4 mph (SSE)    
Max Wind Speed 10 mph    
Max Gust Speed 12 mph    
Visibility 9 miles    
Events Rain    
T = Trace of Precipitation, MM = Missing Value Source: NWS Daily Summary

Daily Weather History Graph

Daily Weather History Graph

Search for Another Location

Airport or City:

Trip Planner

Search our weather history database for the weather conditions in past years. The results will help you decide how hot, cold, wet, or windy it might be!

Date:

Astronomy

May. 23, 2015 Rise Set
Actual Time 5:29 AM CDT 8:36 PM CDT
Civil Twilight 4:54 AM CDT 9:11 PM CDT
Nautical Twilight 4:09 AM CDT 9:57 PM CDT
Astronomical Twilight 3:14 AM CDT 10:52 PM CDT
Moon 10:49 AM CDT (5/23) 12:25 AM CDT (5/23)
Length of Visible Light 16h 17m
Length of Day
15h 06m
Waxing Crescent, 31% of the Moon is Illuminated
May 23
Waxing Crescent
May 25
First Quarter
Jun 2
Full
Jun 9
Last Quarter
Jun 16
New

Hourly Weather History & Observations

Time (CDT) Temp. Dew Point Humidity Pressure Visibility Wind Dir Wind Speed Gust Speed Precip Events Conditions
12:56 AM 46.9 °F 39.9 °F 77% 30.22 in 10.0 mi Calm Calm - N/A   Clear
1:56 AM 45.0 °F 39.0 °F 80% 30.23 in 10.0 mi Calm Calm - N/A   Clear
2:56 AM 43.0 °F 37.9 °F 82% 30.23 in 10.0 mi Calm Calm - N/A   Clear
3:56 AM 43.0 °F 39.0 °F 86% 30.24 in 10.0 mi Calm Calm - N/A   Clear
4:56 AM 41.0 °F 39.0 °F 93% 30.24 in 6.0 mi Calm Calm - N/A   Clear
5:13 AM 42.1 °F 39.0 °F 89% 30.24 in 2.5 mi Calm Calm - N/A   Clear
5:22 AM 41.0 °F 39.0 °F 93% 30.24 in 6.0 mi Calm Calm - N/A   Clear
5:51 AM 41.0 °F 39.2 °F 93% 30.24 in 2.5 mi Calm Calm - N/A   Clear
5:56 AM 42.1 °F 39.9 °F 92% 30.25 in 3.0 mi Calm Calm - N/A   Clear
6:56 AM 48.0 °F 44.1 °F 86% 30.27 in 10.0 mi Calm Calm - N/A   Clear
7:56 AM 55.0 °F 44.1 °F 67% 30.26 in 10.0 mi North - - N/A   Clear
8:56 AM 61.0 °F 43.0 °F 52% 30.27 in 10.0 mi SSW 4.6 mph - N/A   Clear
9:56 AM 66.0 °F 43.0 °F 43% 30.26 in 10.0 mi South 8.1 mph - N/A   Clear
10:56 AM 66.9 °F 43.0 °F 42% 30.25 in 10.0 mi SSW 6.9 mph - N/A   Clear
11:56 AM 69.1 °F 46.0 °F 44% 30.25 in 10.0 mi Variable 5.8 mph - N/A   Mostly Cloudy
12:56 PM 69.1 °F 45.0 °F 42% 30.26 in 10.0 mi WSW 5.8 mph - N/A   Overcast
1:56 PM 70.0 °F 43.0 °F 38% 30.23 in 10.0 mi Variable 4.6 mph - N/A   Mostly Cloudy
2:56 PM 73.0 °F 41.0 °F 31% 30.22 in 10.0 mi South 3.5 mph - N/A   Mostly Cloudy
3:56 PM 73.0 °F 39.0 °F 29% 30.20 in 10.0 mi SSW 4.6 mph - N/A   Overcast
4:56 PM 73.9 °F 39.9 °F 29% 30.19 in 10.0 mi SE 5.8 mph - N/A   Mostly Cloudy
5:56 PM 73.9 °F 41.0 °F 30% 30.17 in 10.0 mi SSW 4.6 mph - 0.00 in Rain Light Rain
6:56 PM 73.0 °F 41.0 °F 31% 30.15 in 10.0 mi SW 3.5 mph - 0.00 in   Mostly Cloudy
7:56 PM 69.1 °F 46.9 °F 45% 30.14 in 10.0 mi ENE 3.5 mph - N/A   Overcast
8:56 PM 63.0 °F 48.0 °F 58% 30.14 in 10.0 mi ENE 4.6 mph - N/A   Scattered Clouds
9:56 PM 63.0 °F 45.0 °F 52% 30.15 in 10.0 mi NE 5.8 mph - N/A   Overcast
10:56 PM 60.1 °F 45.0 °F 57% 30.15 in 10.0 mi NE 5.8 mph - N/A   Overcast
11:56 PM 59.0 °F 46.0 °F 62% 30.15 in 10.0 mi NE 4.6 mph - N/A   Mostly Cloudy